User: anonymous   Login
Location: Unspecified
(0.0000°N, 0.0000°E)
Time: 23:13:42
(UTC+00:00)
Language:

Hubble Space Telescope - Orbit

View from above orbital plane
View from above orbital plane
View from above satellite
View from above satellite

Ground track
Ground track

The orbit data is extracted from the following two-line orbital elements,

1 20580U 90037B   21125.35992303  .00000563  00000-0  23103-4 0  9996
2 20580  28.4710 350.2141 0002546 321.2331 201.9190 15.09631010504543
Epoch (UTC): 05 May 2021 08:38:17
Eccentricity: 0.0002546
inclination: 28.4710°
perigee height: 535 km
apogee height: 539 km
right ascension of ascending node: 350.2141°
argument of perigee: 321.2331°
revolutions per day: 15.09631010
mean anomaly at epoch: 201.9190°
orbit number at epoch: 50454

The dashed part of the orbit path shows where the satellite is in the earth's shadow,  

DLR